Notices

What's New in latest Release from April 7th, 2021:

- Updated Glossary, including Speed of Maximum Gust, and Total Hourly Precipitation

- Updated national and regional climate services offices contacts and prices information

- Addition of station inventory lists for 1981-2010, 1971-2000, and 1961-1990 Normals.

If you haven't already, please take our survey and provide feedback about our website: https://eccc.sondage-survey.ca/f/LanguageSelection.aspx?s=442ca660-fcf1-47c0-95a9-59707d6fd709

Hourly Data Report for October 04, 2003

TORONTO CITY
ONTARIO

43°40'00.000" N
79°24'00.000" W
112.50 m
6158355
71508
XTO

Download Data

Hourly Data (October 2003)
Hourly Data Report for October 4, 2003
TIME
LST
Temp Definition
°C
Dew Point Definition
°C
Rel Hum Definition
%
Precip. Amount Definition
mm

Wind Dir Definition
10's deg

Wind Spd Definition
km/h
Visibility Definition
km
Stn Press Definition
kPa
Hmdx Definition


Wind Chill Definition


Weather Definition


00:00 7.7 6.9 95   LegendMM LegendMM LegendMM 98.76     LegendNANA
01:00 8.2 7.6 96   LegendMM LegendMM LegendMM 98.64     LegendNANA
02:00 7.9 7.4 97   LegendMM LegendMM LegendMM 98.62     LegendNANA
03:00 8.7 8.1 96   LegendMM LegendMM LegendMM 98.60     LegendNANA
04:00 7.8 6.1 89   LegendMM LegendMM LegendMM 98.65     LegendNANA
05:00 7.8 5.9 88   LegendMM LegendMM LegendMM 98.74     LegendNANA
06:00 7.8 5.7 87   LegendMM LegendMM LegendMM 98.79     LegendNANA
07:00 7.6 5.3 85   LegendMM LegendMM LegendMM 98.88     LegendNANA
08:00 8.0 5.7 85   LegendMM LegendMM LegendMM 98.94     LegendNANA
09:00 7.8 4.3 79   LegendMM LegendMM LegendMM 99.01     LegendNANA
10:00 9.7 3.6 66   LegendMM LegendMM LegendMM 99.00     LegendNANA
11:00 9.7 3.2 64   LegendMM LegendMM LegendMM 99.02     LegendNANA
12:00 11.0 2.2 55   LegendMM LegendMM LegendMM 99.05     LegendNANA
13:00 10.5 2.4 57   LegendMM LegendMM LegendMM 99.05     LegendNANA
14:00 9.3 1.4 58   LegendMM LegendMM LegendMM 99.11     LegendNANA
15:00 10.1 1.9 57   LegendMM LegendMM LegendMM 99.16     LegendNANA
16:00 10.1 1.7 56   LegendMM LegendMM LegendMM 99.23     LegendNANA
17:00 10.1 0.3 51   LegendMM LegendMM LegendMM 99.29     LegendNANA
18:00 8.9 1.9 61   LegendMM LegendMM LegendMM 99.41     LegendNANA
19:00 8.0 2.5 68   LegendMM LegendMM LegendMM 99.51     LegendNANA
20:00 7.3 2.5 72   LegendMM LegendMM LegendMM 99.55     LegendNANA
21:00 6.9 2.8 75   LegendMM LegendMM LegendMM 99.59     LegendNANA
22:00 6.2 2.8 79   LegendMM LegendMM LegendMM 99.60     LegendNANA
23:00 5.7 2.7 81   LegendMM LegendMM LegendMM 99.56     LegendNANA

Notes on Data Quality.

Legend

  • E = Estimated
  • M = Missing
  • NA = Not Available*
  • [empty] = Indicates an unobserved value
Date modified: